EHI
67 71 72 71 76 78 77 78 82 82 76 65 56 53 47 28 12 18 27 18 5 1 1 1 0 0 0 0 0 0 1 2 3 4 4 7 14 24 38 51 57 58 58
64 67 64 61 63 65 65 68 73 72 66 59 52 50 46 29 16 23 30 21 10 5 3 2 1 0 0 0 0 0 0 1 1 1 2 3 7 12 23 38 51 58 62
59 57 51 45 44 46 49 55 60 58 56 52 47 47 46 33 25 33 41 35 22 12 8 5 3 1 0 0 0 0 0 0 0 0 0 1 1 2 7 16 28 44 56
49 44 36 30 27 29 37 49 56 57 57 55 53 54 50 41 41 51 57 51 36 23 19 14 9 5 2 1 1 1 0 0 0 0 0 1 1 1 1 2 8 22 35
30 27 22 18 16 18 29 45 57 63 65 65 67 68 63 56 58 67 71 64 51 41 36 31 25 17 8 3 2 1 0 0 0 0 0 1 1 1 0 0 2 8 14
13 13 11 10 10 13 22 34 47 55 60 64 68 72 72 70 70 74 77 73 66 61 56 51 47 37 21 10 5 2 1 0 0 0 0 0 1 1 0 0 0 2 3
6 6 6 5 5 8 13 20 27 34 39 44 51 59 65 69 72 75 78 79 77 75 74 69 63 50 33 18 8 4 2 1 1 1 1 2 3 2 1 0 0 0 0
2 2 2 1 1 2 5 9 13 18 20 23 30 38 46 52 59 65 72 77 78 79 82 79 68 53 36 22 12 6 4 3 2 1 2 3 3 2 1 0 0 0 0
0 0 0 0 0 0 1 2 5 8 9 10 14 19 24 30 35 43 53 62 67 71 75 76 67 53 38 24 14 8 5 3 2 1 1 2 2 1 0 0 0 0 0
0 0 0 0 0 0 0 0 1 2 2 3 4 5 8 12 15 21 29 37 45 52 57 61 59 51 42 29 17 9 6 3 2 0 0 1 1 1 0 0 0 0 0
0 0 0 0 0 0 0 0 0 0 0 0 0 0 1 3 4 7 11 16 22 27 32 39 41 39 36 29 18 9 4 3 3 1 0 0 0 0 0 0 0 0 0
0 0 0 0 0 0 0 0 0 0 0 0 0 0 0 0 0 1 2 5 6 8 10 16 22 23 22 20 15 7 3 3 3 1 0 0 0 0 0 0 0 0 0
0 0 0 0 0 0 0 0 0 0 0 0 0 0 0 0 0 0 0 1 1 1 1 3 7 11 11 8 7 5 2 2 3 2 1 0 0 0 0 0 0 0 0
0 0 0 0 0 0 0 0 0 0 0 0 0 0 0 0 0 0 0 0 0 0 0 0 2 4 4 2 2 2 2 2 3 2 1 0 0 0 0 0 0 0 0
0 0 0 0 0 0 0 0 0 0 0 0 0 0 0 0 0 0 0 0 0 0 0 0 0 1 1 0 0 1 1 2 2 1 0 0 0 0 0 0 0 0 0
0 0 0 0 0 0 0 0 0 0 0 0 0 0 0 0 0 0 0 0 0 0 0 0 0 0 0 0 0 0 0 1 1 0 0 0 0 0 0 0 0 0 0
0 0 0 0 0 0 0 0 0 0 0 0 0 0 0 0 0 0 0 0 0 0 0 0 0 0 0 0 0 0 0 0 0 0 0 0 0 0 0 0 0 0 0
0 0 0 0 0 0 0 0 0 0 0 0 0 0 0 0 0 0 0 0 0 0 0 0 0 0 0 0 0 0 0 0 0 0 0 0 0 0 0 0 0 0 0
0 0 0 0 0 0 0 0 0 0 0 0 0 0 0 0 0 0 0 0 0 0 0 0 0 0 0 0 0 0 0 0 0 0 0 0 0 0 0 0 0 0 0
0 0 0 0 1 1 1 1 1 0 0 0 0 0 0 0 0 0 0 0 0 0 0 0 0 0 0 0 0 0 0 0 0 0 0 0 0 0 0 0 0 0 0
0 0 0 1 3 4 4 2 1 0 0 0 0 0 0 0 0 0 0 0 0 0 0 0 0 0 0 0 0 0 0 0 0 0 0 0 0 0 0 0 0 0 0
0 0 0 1 4 5 3 1 1 0 0 0 0 0 0 0 0 0 0 0 0 0 0 0 0 0 0 0 0 0 0 0 0 0 0 0 0 0 0 0 0 0 0
0 0 0 1 2 2 1 0 0 0 0 0 0 0 0 0 0 0 0 0 0 0 0 0 0 0 0 0 0 0 0 0 0 0 0 0 0 0 0 0 0 0 0
0 0 0 0 0 0 0 0 0 0 0 0 0 0 0 0 0 0 0 0 0 0 0 0 0 0 0 0 0 0 0 0 0 0 0 0 0 0 0 0 0 0 0
0 0 0 0 0 0 0 0 0 0 0 0 0 0 0 0 0 0 0 0 0 0 0 0 0 0 0 0 0 0 0 0 0 0 0 0 0 0 0 0 0 0 0
0 0 0 0 0 0 0 0 0 0 0 0 0 0 0 0 0 0 0 0 0 0 0 0 0 0 0 0 0 0 0 0 0 0 0 0 0 0 0 0 0 0 0
Wind_Speed
3 5 7 5 5 8 8 7 7 8 5 3 2 2 2 1 1 1 5 4 1 2 1 3 3 4 3 4 5 4 6 5 4 5 6 6 8 8 8 9 9 10 11
8 9 9 8 8 10 9 6 6 4 4 3 1 1 1 0 0 1 3 3 2 0 3 2 3 4 4 5 5 4 4 5 5 4 6 6 6 6 8 7 8 10 8
8 7 9 9 9 8 6 4 4 2 2 3 0 0 0 1 1 2 2 3 2 1 2 2 3 3 4 4 4 4 5 5 5 4 4 4 5 6 6 7 6 6 7
14 13 13 12 10 9 7 4 4 2 1 1 2 2 2 3 2 2 2 3 3 4 3 3 4 3 3 4 5 3 4 5 6 5 4 6 7 6 6 7 7 7 6
15 13 13 11 10 10 8 7 5 3 3 2 3 3 5 5 4 2 1 2 4 5 6 5 4 3 4 5 4 4 5 4 5 5 6 7 6 7 7 9 7 6 5
13 12 12 11 11 10 10 10 10 9 9 7 6 5 5 6 7 6 5 3 4 4 6 6 4 4 4 4 4 5 6 5 6 5 6 6 6 6 6 7 8 7 6
12 11 11 10 9 10 10 10 11 10 9 9 8 8 7 6 6 6 6 5 4 4 3 2 2 3 4 4 5 5 6 6 6 6 6 6 6 7 7 7 8 8 6
9 9 9 8 8 8 8 8 8 8 8 8 7 6 7 6 5 6 6 6 5 5 5 3 3 4 5 6 5 5 6 5 5 7 7 6 7 6 7 7 7 7 6
7 7 7 6 6 6 6 6 6 6 6 6 7 5 5 5 6 6 6 5 5 7 7 6 5 5 6 6 6 5 6 5 5 6 7 6 6 6 6 6 6 7 6
8 8 7 6 6 5 4 4 4 5 5 5 5 6 6 6 6 6 6 6 6 7 8 8 7 6 6 6 6 6 6 5 5 5 6 6 5 5 6 6 6 7 6
9 9 9 8 8 7 7 6 6 6 5 5 5 5 5 6 6 6 6 6 6 7 7 8 8 8 8 7 6 7 6 6 5 5 5 6 7 5 5 5 5 5 5
9 10 11 10 9 9 8 7 7 7 7 7 6 6 6 7 7 8 7 7 8 8 8 8 8 9 9 7 7 7 6 5 5 4 5 6 6 6 5 4 4 3 3
11 11 11 9 8 8 8 8 9 9 8 8 8 8 8 8 8 9 8 8 9 9 9 8 9 9 9 9 8 7 6 5 3 2 3 5 5 5 4 4 2 1 2
13 13 10 8 7 7 8 9 10 9 10 9 8 8 9 9 10 9 9 9 9 9 9 9 9 9 10 10 9 8 6 4 2 1 1 2 3 3 3 2 1 1 4
17 13 9 8 8 8 7 8 8 8 8 8 9 9 9 9 9 9 10 10 11 12 9 9 8 8 9 10 9 7 7 5 4 3 2 2 3 4 3 2 2 3 5
15 13 13 12 11 10 10 10 9 8 8 9 9 9 8 8 8 8 9 10 10 9 8 8 8 8 10 9 8 7 6 5 6 5 4 4 3 4 6 8 9 7 6
16 17 16 12 10 10 9 9 9 8 8 8 9 9 9 9 9 11 10 8 8 8 7 7 8 8 8 8 8 10 6 6 7 7 6 5 5 4 4 7 10 11 11
20 17 16 15 14 12 12 10 12 10 10 9 9 9 9 9 8 9 8 7 7 7 7 7 8 7 8 7 7 9 8 6 8 8 7 6 6 5 5 6 8 8 7
16 15 17 18 15 15 14 11 11 11 11 11 10 9 9 10 9 9 8 7 6 7 8 9 8 7 5 5 6 7 6 6 8 9 9 8 7 7 8 8 8 9 8
16 15 17 17 14 13 12 11 13 12 12 12 11 10 10 11 11 10 9 8 7 7 9 9 8 7 5 3 5 7 5 6 7 8 9 10 10 10 9 8 8 8 7
18 16 15 13 11 10 10 11 13 13 12 12 12 11 10 10 11 11 9 9 8 9 9 9 7 6 5 3 4 5 4 5 7 9 9 8 13 11 9 8 7 9 8
19 19 13 12 10 10 10 12 12 12 12 12 13 13 11 12 13 9 8 8 8 8 8 8 8 5 4 4 4 5 5 5 3 7 8 10 15 12 9 7 10 12 9
17 16 15 13 11 10 10 13 13 12 14 14 15 14 14 12 11 11 10 9 8 7 8 7 6 4 3 3 4 3 2 4 3 3 10 15 16 12 8 10 11 8 4
17 15 15 16 15 14 14 13 14 14 14 15 14 13 12 12 11 9 8 8 8 7 6 6 5 3 3 3 3 3 2 2 2 4 13 17 15 9 9 9 6 4 3
15 15 15 16 18 17 16 16 15 14 15 15 14 13 12 11 10 9 8 9 7 6 6 4 4 3 3 3 5 5 3 2 3 7 9 9 8 7 7 6 4 4 3
17 17 17 18 19 19 18 17 15 14 14 13 13 10 9 8 8 8 8 10 9 8 7 5 3 3 6 6 6 7 4 2 6 8 10 10 9 8 8 7 6 4 4
Wind_Direction
30 57 51 45 64 81 90 110 114 115 127 141 169 164 156 192 149 128 109 102 82 32 335 295 336 311 306 334 320 311 309 301 291 288 286 271 252 240 232 231 234 234 233
36 38 47 47 56 62 57 72 84 108 125 111 106 83 94 226 234 86 129 152 157 102 288 17 330 320 333 301 288 307 303 300 305 303 301 294 283 265 254 230 226 231 229
56 47 45 42 47 59 66 71 76 78 60 91 179 182 85 307 265 229 184 153 146 204 249 281 281 303 295 301 335 303 294 304 308 294 288 295 293 314 302 300 275 246 229
42 45 51 46 37 38 36 36 88 85 58 28 305 299 269 261 252 220 200 149 192 214 213 226 246 265 284 295 289 328 336 306 295 295 285 276 289 296 299 299 297 287 264
59 47 51 51 45 38 34 18 33 40 25 350 316 312 295 290 289 287 233 175 231 216 207 209 214 238 258 271 290 295 283 283 284 292 297 296 294 277 273 285 292 296 290
71 61 56 51 47 43 36 31 28 31 23 11 351 332 310 304 305 311 308 283 258 234 213 203 195 219 250 272 280 279 279 274 276 278 279 279 279 281 276 278 285 287 291
73 69 61 53 50 44 37 36 29 27 25 22 13 4 353 329 311 306 298 291 286 281 259 227 189 231 258 266 265 267 269 272 272 271 269 268 268 270 270 272 277 280 284
74 71 65 59 49 45 38 34 31 25 18 17 8 10 7 354 342 339 323 312 309 310 326 326 275 254 258 267 269 274 273 272 274 279 277 271 266 264 264 263 267 275 273
51 52 49 42 36 31 33 26 22 12 4 360 348 353 4 350 345 338 329 327 325 314 322 317 297 279 268 265 269 270 273 278 278 283 285 280 273 265 260 259 252 251 260
15 14 10 8 4 355 359 4 356 346 335 333 333 337 344 333 333 326 326 329 328 324 317 306 298 286 274 265 262 268 269 276 283 282 289 295 290 279 268 260 254 241 237
354 347 342 340 334 329 335 344 337 327 320 318 317 315 311 315 314 307 309 316 315 313 308 303 295 286 276 266 260 262 269 276 283 294 304 306 303 297 286 273 260 246 222
330 326 323 322 320 320 321 319 313 306 301 300 296 291 292 294 292 292 299 301 300 299 298 299 295 285 278 273 265 261 266 273 287 302 313 315 314 313 306 293 276 250 205
318 312 306 302 300 299 296 292 287 282 279 277 276 276 277 277 276 277 278 279 281 283 287 289 290 287 282 277 268 257 252 256 271 300 315 316 321 321 320 312 298 267 159
311 307 303 297 292 285 279 275 275 273 271 264 262 262 262 263 264 265 266 268 269 273 274 276 280 283 281 274 267 256 244 232 215 208 290 325 337 339 335 335 354 114 120
313 317 320 318 310 302 292 288 284 279 276 271 267 265 262 260 259 259 260 261 260 264 265 271 279 286 282 271 266 250 238 209 184 169 145 86 58 38 25 51 75 108 116
323 328 322 317 312 307 301 294 288 282 272 268 269 269 267 268 267 266 264 261 260 262 265 270 279 287 291 302 293 261 238 195 177 167 151 136 107 83 71 71 74 86 113
330 320 315 310 303 299 293 287 289 285 283 279 277 276 273 273 271 275 277 276 280 282 281 283 284 284 291 281 264 253 236 193 177 166 163 155 134 128 108 91 81 73 73
320 316 312 308 302 299 297 294 293 288 283 279 278 276 274 274 272 272 273 274 277 281 282 277 276 279 292 279 253 250 244 201 174 165 163 151 146 145 136 114 97 84 74
314 312 308 304 301 298 295 290 290 289 286 284 280 279 277 277 273 272 272 273 271 273 272 271 265 268 282 281 253 243 240 201 174 163 156 151 147 145 135 120 110 102 92
311 304 301 298 295 295 295 292 290 288 286 286 284 283 278 277 275 274 273 272 267 266 268 267 262 258 260 272 241 231 243 205 172 156 151 152 144 142 136 129 123 115 113
306 303 299 297 295 294 290 285 288 288 289 291 292 289 284 280 274 268 264 263 264 265 263 266 266 258 248 234 214 221 247 225 173 160 156 153 149 144 135 134 128 130 127
308 307 303 298 294 294 295 297 297 297 297 294 290 285 279 276 276 268 265 263 260 261 259 258 259 248 226 214 196 211 240 266 204 166 157 151 152 147 141 134 140 146 144
310 310 308 306 310 317 317 307 303 300 296 290 284 280 276 269 266 264 263 261 256 252 252 251 248 230 204 186 168 164 235 246 240 191 152 147 150 146 143 146 152 159 160
317 319 320 321 321 318 312 302 298 293 289 285 283 279 274 268 263 255 251 249 247 245 244 249 245 207 167 167 160 140 141 198 207 160 142 142 150 151 140 147 164 188 194
327 329 327 322 316 312 304 299 294 290 285 282 279 277 271 266 262 257 246 244 241 238 238 241 235 195 163 162 164 154 149 185 181 146 146 147 152 154 152 160 176 192 176
330 328 323 317 311 307 301 298 292 285 280 278 275 269 263 259 253 251 252 234 228 219 208 194 174 127 128 141 151 152 157 225 189 165 155 154 160 161 160 166 173 179 151